Weather History for Auburn, AL

Change the Weather History Date:

Saturday, February 16, 2013

  Actual Average Record
Temperature  
Mean Temperature 38 °F -  
Max Temperature 46 °F - 82 °F (1989)
Min Temperature 30 °F - 15 °F (1958)
Degree Days  
Heating Degree Days 27    
Month to date heating degree days 256  
Since 1 July heating degree days 1287  
Moisture  
Dew Point 20 °F    
Average Humidity 46    
Maximum Humidity 70    
Minimum Humidity 23    
Precipitation  
Precipitation 0.00 in - 2.21 in (2003)
Month to date precipitation 5.33  
Year to date precipitation 8.25  
Sea Level Pressure  
Sea Level Pressure 30.05 in    
Wind  
Wind Speed 12 mph (NW)    
Max Wind Speed 21 mph    
Max Gust Speed 31 mph    
Visibility 10 miles    
Events      
T = Trace of Precipitation, MM = Missing Value Source: NWS Daily Summary

Daily Weather History Graph

Daily Weather History Graph

Search for Another Location

Airport:

Trip Planner

Search our weather history database for the weather conditions in past years. The results will help you decide how hot, cold, wet, or windy it might be!

Date:

Astronomy

Feb. 16, 2013 Rise Set
Actual Time 6:23 AM CST 5:28 PM CST
Civil Twilight 5:58 AM CST 5:53 PM CST
Nautical Twilight 5:29 AM CST 6:22 PM CST
Astronomical Twilight 5:00 AM CST 6:51 PM CST
Moon 10:00 AM CST (2/16) 11:59 PM CST (2/16)
Length of Visible Light 11h 55m
Length of Day
11h 05m
Waxing Crescent, 39% of the Moon is Illuminated
Feb 16
Waxing Crescent
Feb 17
First Quarter
Feb 25
Full
Mar 4
Last Quarter
Mar 11
New

Hourly Weather History & Observations

Time (CST) Temp. Windchill Dew Point Humidity Pressure Visibility Wind Dir Wind Speed Gust Speed Precip Events Conditions
12:15 AM 44.6 °F 40.7 °F 33.8 °F 66% 30.00 in 10.0 mi NNW 6.9 mph - N/A   Mostly Cloudy
12:35 AM 44.6 °F 39.7 °F 33.8 °F 66% 30.00 in 10.0 mi NNW 9.2 mph - N/A   Overcast
12:55 AM 44.6 °F 40.2 °F 33.8 °F 66% 29.99 in 10.0 mi NNW 8.1 mph - N/A   Overcast
1:15 AM 44.6 °F 40.2 °F 33.8 °F 66% 29.99 in 10.0 mi NNW 8.1 mph - N/A   Overcast
1:35 AM 44.6 °F 40.7 °F 33.8 °F 66% 29.98 in 10.0 mi NNW 6.9 mph - N/A   Overcast
1:55 AM 44.6 °F 40.7 °F 33.8 °F 66% 29.98 in 10.0 mi NNW 6.9 mph - N/A   Overcast
2:15 AM 44.6 °F 41.4 °F 33.8 °F 66% 29.98 in 10.0 mi NW 5.8 mph - N/A   Overcast
2:35 AM 44.6 °F 42.2 °F 33.8 °F 66% 29.98 in 10.0 mi NW 4.6 mph - N/A   Overcast
2:55 AM 42.8 °F 40.1 °F 33.8 °F 70% 29.98 in 10.0 mi WNW 4.6 mph - N/A   Overcast
3:15 AM 42.8 °F 41.1 °F 33.8 °F 70% 29.97 in 10.0 mi WNW 3.5 mph - N/A   Mostly Cloudy
3:35 AM 44.6 °F 43.1 °F 33.8 °F 66% 29.97 in 10.0 mi NNW 3.5 mph - N/A   Overcast
3:55 AM 44.6 °F 42.2 °F 33.8 °F 66% 29.97 in 10.0 mi NW 4.6 mph - N/A   Overcast
4:15 AM 42.8 °F 39.3 °F 33.8 °F 70% 29.98 in 10.0 mi NW 5.8 mph - N/A   Overcast
4:35 AM 42.8 °F 38.0 °F 33.8 °F 70% 29.99 in 10.0 mi NW 8.1 mph - N/A   Overcast
5:15 AM 42.8 °F 37.0 °F 33.8 °F 70% 29.99 in 10.0 mi NW 10.4 mph - N/A   Overcast
5:35 AM 42.8 °F 36.6 °F 32.0 °F 66% 30.00 in 10.0 mi NNW 11.5 mph - N/A   Overcast
5:55 AM 42.8 °F 37.5 °F 32.0 °F 66% 30.00 in 10.0 mi NNW 9.2 mph - N/A   Overcast
6:15 AM 42.8 °F 39.3 °F 32.0 °F 66% 29.99 in 10.0 mi North 5.8 mph - N/A   Mostly Cloudy
6:35 AM 42.8 °F 40.1 °F 30.2 °F 61% 30.00 in 10.0 mi North 4.6 mph - N/A   Overcast
6:55 AM 41.0 °F 37.1 °F 30.2 °F 65% 30.01 in 10.0 mi NW 5.8 mph - N/A   Overcast
7:15 AM 42.8 °F 37.0 °F 30.2 °F 61% 30.02 in 10.0 mi NNW 10.4 mph - N/A   Overcast
7:35 AM 41.0 °F 35.2 °F 28.4 °F 61% 30.02 in 10.0 mi NNW 9.2 mph - N/A   Overcast
7:55 AM 42.8 °F 35.4 °F 28.4 °F 57% 30.03 in 10.0 mi NW 15.0 mph - N/A   Scattered Clouds
8:15 AM 42.8 °F 36.2 °F 28.4 °F 57% 30.03 in 10.0 mi NNW 12.7 mph 21.9 mph N/A   Partly Cloudy
8:35 AM 42.8 °F 35.8 °F 26.6 °F 53% 30.04 in 10.0 mi NW 13.8 mph - N/A   Scattered Clouds
8:55 AM 42.8 °F 35.4 °F 24.8 °F 49% 30.04 in 10.0 mi NNW 15.0 mph 23.0 mph N/A   Mostly Cloudy
9:15 AM 44.6 °F 37.2 °F 24.8 °F 46% 30.05 in 10.0 mi NW 17.3 mph 23.0 mph N/A   Scattered Clouds
9:35 AM 44.6 °F 37.4 °F 21.2 °F 39% 30.05 in 10.0 mi NW 16.1 mph 24.2 mph N/A   Clear
9:55 AM 44.6 °F 36.9 °F 19.4 °F 37% 30.05 in 10.0 mi NW 18.4 mph 24.2 mph N/A   Partly Cloudy
10:15 AM 44.6 °F 37.2 °F 17.6 °F 34% 30.05 in 10.0 mi NW 17.3 mph 23.0 mph N/A   Partly Cloudy
10:35 AM 46.4 °F 40.1 °F 15.8 °F 29% 30.05 in 10.0 mi NW 15.0 mph 25.3 mph N/A   Scattered Clouds
10:55 AM 46.4 °F 38.7 °F 14.0 °F 27% 30.05 in 10.0 mi NW 20.7 mph 31.1 mph N/A   Scattered Clouds
11:15 AM 44.6 °F 36.1 °F 14.0 °F 29% 30.05 in 10.0 mi NW 21.9 mph 27.6 mph N/A   Scattered Clouds
11:35 AM 44.6 °F 36.9 °F 15.8 °F 31% 30.04 in 10.0 mi NW 18.4 mph 27.6 mph N/A   Partly Cloudy
11:55 AM 46.4 °F 39.5 °F 14.0 °F 27% 30.04 in 10.0 mi NW 17.3 mph 27.6 mph N/A   Mostly Cloudy
12:15 PM 46.4 °F 40.1 °F 12.2 °F 25% 30.03 in 10.0 mi WNW 15.0 mph 24.2 mph N/A   Mostly Cloudy
12:35 PM 46.4 °F 39.8 °F 12.2 °F 25% 30.03 in 10.0 mi NW 16.1 mph 28.8 mph N/A   Mostly Cloudy
12:55 PM 44.6 °F 36.6 °F 12.2 °F 27% 30.02 in 10.0 mi NW 19.6 mph 27.6 mph N/A   Mostly Cloudy
1:15 PM 44.6 °F 36.4 °F 12.2 °F 27% 30.02 in 10.0 mi NW 20.7 mph 26.5 mph N/A   Mostly Cloudy
1:35 PM 42.8 °F 34.0 °F 12.2 °F 29% 30.02 in 10.0 mi NW 20.7 mph 27.6 mph N/A   Mostly Cloudy
1:55 PM 46.4 °F 40.1 °F 12.2 °F 25% 30.02 in 10.0 mi NNW 15.0 mph 29.9 mph N/A   Overcast
2:15 PM 46.4 °F 38.7 °F 10.4 °F 23% 30.02 in 10.0 mi NW 20.7 mph 27.6 mph N/A   Overcast
2:35 PM 44.6 °F 37.2 °F 8.6 °F 23% 30.02 in 10.0 mi WNW 17.3 mph 29.9 mph N/A   Partly Cloudy
2:56 PM 44.6 °F 36.9 °F 8.6 °F 23% 30.03 in 10.0 mi WNW 18.4 mph 27.6 mph N/A   Scattered Clouds
3:15 PM 44.6 °F 37.4 °F 8.6 °F 23% 30.04 in 10.0 mi NW 16.1 mph 32.2 mph N/A   Partly Cloudy
3:35 PM 42.8 °F 34.5 °F 8.6 °F 25% 30.04 in 10.0 mi WNW 18.4 mph 31.1 mph N/A   Mostly Cloudy
3:55 PM 42.8 °F 34.5 °F 8.6 °F 25% 30.05 in 10.0 mi NW 18.4 mph 24.2 mph N/A   Mostly Cloudy
4:15 PM 42.8 °F 34.3 °F 8.6 °F 25% 30.05 in 10.0 mi NW 19.6 mph 24.2 mph N/A   Mostly Cloudy
4:35 PM 41.0 °F 33.5 °F 10.4 °F 29% 30.06 in 10.0 mi NNW 13.8 mph 24.2 mph N/A   Mostly Cloudy
4:55 PM 41.0 °F 32.2 °F 8.6 °F 26% 30.06 in 10.0 mi NW 18.4 mph 24.2 mph N/A   Overcast
5:15 PM 39.2 °F 32.5 °F 8.6 °F 28% 30.07 in 10.0 mi NW 10.4 mph 24.2 mph N/A   Scattered Clouds
5:35 PM 39.2 °F 32.0 °F 10.4 °F 31% 30.07 in 10.0 mi NW 11.5 mph 19.6 mph N/A   Scattered Clouds
5:55 PM 37.4 °F 30.3 °F 12.2 °F 36% 30.09 in 10.0 mi NNW 10.4 mph 18.4 mph N/A   Partly Cloudy
6:15 PM 37.4 °F 30.8 °F 12.2 °F 36% 30.09 in 10.0 mi NW 9.2 mph 16.1 mph N/A   Mostly Cloudy
6:35 PM 37.4 °F 31.4 °F 12.2 °F 36% 30.10 in 10.0 mi NW 8.1 mph - N/A   Scattered Clouds
6:55 PM 37.4 °F 32.1 °F 12.2 °F 36% 30.10 in 10.0 mi NNW 6.9 mph - N/A   Clear
7:15 PM 35.6 °F 29.2 °F 12.2 °F 38% 30.11 in 10.0 mi NW 8.1 mph - N/A   Clear
7:35 PM 35.6 °F 27.5 °F 12.2 °F 38% 30.13 in 10.0 mi NNW 11.5 mph - N/A   Clear
7:55 PM 35.6 °F 28.0 °F 12.2 °F 38% 30.13 in 10.0 mi NNW 10.4 mph - N/A   Clear
8:15 PM 35.6 °F 28.6 °F 14.0 °F 41% 30.14 in 10.0 mi NNW 9.2 mph - N/A   Clear
8:35 PM 35.6 °F 28.6 °F 15.8 °F 44% 30.15 in 10.0 mi NNW 9.2 mph - N/A   Clear
8:55 PM 35.6 °F 28.6 °F 15.8 °F 44% 30.15 in 10.0 mi NNW 9.2 mph - N/A   Clear
9:15 PM 33.8 °F 27.7 °F 15.8 °F 48% 30.16 in 10.0 mi NW 6.9 mph - N/A   Clear
9:35 PM 33.8 °F 27.7 °F 15.8 °F 48% 30.17 in 10.0 mi NW 6.9 mph - N/A   Clear
9:55 PM 33.8 °F 27.7 °F 15.8 °F 48% 30.17 in 10.0 mi NW 6.9 mph - N/A   Clear
10:15 PM 32.0 °F 26.4 °F 17.6 °F 55% 30.18 in 10.0 mi NW 5.8 mph - N/A   Clear
10:35 PM 32.0 °F 26.4 °F 17.6 °F 55% 30.18 in 10.0 mi NW 5.8 mph - N/A   Clear
10:55 PM 30.2 °F 25.4 °F 17.6 °F 60% 30.17 in 10.0 mi WNW 4.6 mph - N/A   Clear
11:15 PM 30.2 °F 26.7 °F 15.8 °F 55% 30.17 in 10.0 mi WNW 3.5 mph - N/A   Clear
11:35 PM 30.2 °F 26.7 °F 17.6 °F 60% 30.18 in 10.0 mi WNW 3.5 mph - N/A   Clear
11:55 PM 30.2 °F 23.4 °F 17.6 °F 60% 30.17 in 10.0 mi NW 6.9 mph - N/A   Clear